• In Hungary
  • List of Countries
  • For 7 days
  • Water Temperature
  • Satellite Maps
  • Weather Map
  • News
  • Weather Widgets
  • user-avatar
    Login

    Hourly Weather Melbourne

    Today, 21 August, Monday

    Time Temperature Precipitation Wind Pressure Humidity
    00:00 +7°C° 0 mm 2 mps 762 mmHg 75%
    01:00 +7°C° 0 mm 2 mps 762 mmHg 75%
    02:00 +7°C° 0 mm 3 mps 762 mmHg 75%
    03:00 +7°C° 0 mm 3 mps 761 mmHg 74%
    04:00 +6°C° 0 mm 4 mps 761 mmHg 70%
    05:00 +6°C° 0.1 mm 4 mps 761 mmHg 73%
    06:00 +6°C° 0.1 mm 4 mps 761 mmHg 76%
    07:00 +5°C° 0.1 mm 4 mps 760 mmHg 79%
    08:00 +6°C° 0.3 mm 4 mps 760 mmHg 80%
    09:00 +6°C° 0.3 mm 4 mps 760 mmHg 82%
    10:00 +7°C° 0.3 mm 4 mps 760 mmHg 84%
    11:00 +8°C° 0.1 mm 4 mps 760 mmHg 79%
    12:00 +10°C° 0.1 mm 3 mps 760 mmHg 74%
    13:00 +11°C° 0.1 mm 3 mps 759 mmHg 69%
    14:00 +12°C° 0 mm 3 mps 759 mmHg 68%
    15:00 +12°C° 0 mm 3 mps 759 mmHg 67%
    16:00 +12°C° 0 mm 3 mps 759 mmHg 66%
    17:00 +11°C° 0 mm 3 mps 759 mmHg 73%
    18:00 +10°C° 0 mm 3 mps 759 mmHg 80%
    19:00 +8°C° 0 mm 3 mps 760 mmHg 88%
    20:00 +8°C° 0 mm 3 mps 760 mmHg 90%
    21:00 +7°C° 0 mm 3 mps 761 mmHg 91%
    22:00 +7°C° 0 mm 3 mps 761 mmHg 93%
    23:00 +7°C° 0 mm 3 mps 761 mmHg 94%

    Tomorrow, 22 August, Tuesday

    Time Temperature Precipitation Wind Pressure Humidity
    00:00 +7°C° 0 mm 3 mps 761 mmHg 94%
    01:00 +5°C° 0 mm 3 mps 761 mmHg 94%
    02:00 +6°C° 0 mm 2 mps 761 mmHg 94%
    03:00 +6°C° 0 mm 2 mps 761 mmHg 95%
    04:00 +6°C° 0 mm 2 mps 761 mmHg 95%
    05:00 +5°C° 0 mm 2 mps 762 mmHg 95%
    06:00 +5°C° 0 mm 2 mps 762 mmHg 95%
    07:00 +5°C° 0 mm 2 mps 763 mmHg 95%
    08:00 +7°C° 0 mm 2 mps 763 mmHg 86%
    09:00 +9°C° 0 mm 2 mps 763 mmHg 78%
    10:00 +13°C° 0 mm 2 mps 763 mmHg 69%
    11:00 +14°C° 0 mm 2 mps 763 mmHg 64%
    12:00 +15°C° 0 mm 2 mps 762 mmHg 60%
    13:00 +16°C° 0 mm 2 mps 762 mmHg 55%
    14:00 +16°C° 0 mm 2 mps 762 mmHg 57%
    15:00 +16°C° 0 mm 2 mps 762 mmHg 58%
    16:00 +16°C° 0 mm 2 mps 762 mmHg 60%
    17:00 +14°C° 0 mm 1 mps 762 mmHg 67%
    18:00 +13°C° 0 mm 1 mps 763 mmHg 74%
    19:00 +11°C° 0 mm 1 mps 763 mmHg 81%
    20:00 +10°C° 0 mm 2 mps 763 mmHg 83%
    21:00 +9°C° 0 mm 2 mps 764 mmHg 85%
    22:00 +9°C° 0 mm 3 mps 764 mmHg 87%
    23:00 +8°C° 0 mm 3 mps 764 mmHg 88%

    Day after tomorrow, 23 August, Wednesday

    Time Temperature Precipitation Wind Pressure Humidity
    00:00 +8°C° 0 mm 3 mps 764 mmHg 88%
    01:00 +8°C° 0 mm 3 mps 763 mmHg 89%
    02:00 +8°C° 0 mm 3 mps 763 mmHg 88%
    03:00 +9°C° 0 mm 3 mps 763 mmHg 88%
    04:00 +9°C° 0 mm 3 mps 763 mmHg 87%
    05:00 +9°C° 0 mm 3 mps 763 mmHg 87%
    06:00 +9°C° 0 mm 3 mps 763 mmHg 87%
    07:00 +9°C° 0 mm 3 mps 763 mmHg 87%
    08:00 +10°C° 0 mm 3 mps 763 mmHg 82%
    09:00 +12°C° 0 mm 4 mps 763 mmHg 76%
    10:00 +13°C° 0 mm 4 mps 763 mmHg 70%
    11:00 +14°C° 0 mm 5 mps 762 mmHg 68%
    12:00 +15°C° 0 mm 5 mps 761 mmHg 66%
    13:00 +15°C° 0 mm 6 mps 761 mmHg 63%
    14:00 +15°C° 0.5 mm 6 mps 761 mmHg 69%
    15:00 +14°C° 0.5 mm 6 mps 760 mmHg 75%
    16:00 +13°C° 0.5 mm 6 mps 760 mmHg 81%
    17:00 +12°C° 0.7 mm 5 mps 761 mmHg 84%
    18:00 +9°C° 0.7 mm 5 mps 762 mmHg 86%
    19:00 +8°C° 0.7 mm 5 mps 763 mmHg 89%
    20:00 +7°C° 0 mm 4 mps 763 mmHg 89%
    21:00 +7°C° 0 mm 4 mps 764 mmHg 90%
    22:00 +6°C° 0 mm 4 mps 764 mmHg 90%
    23:00 +6°C° 0 mm 4 mps 765 mmHg 89%

    24 August, Thursday

    Time Temperature Precipitation Wind Pressure Humidity
    00:00 +5°C° 0 mm 4 mps 765 mmHg 88%
    01:00 +5°C° 0 mm 4 mps 765 mmHg 88%
    02:00 +5°C° 0 mm 4 mps 765 mmHg 87%
    03:00 +5°C° 0 mm 4 mps 765 mmHg 87%
    04:00 +5°C° 0 mm 4 mps 765 mmHg 86%
    05:00 +5°C° 0.1 mm 4 mps 765 mmHg 87%
    06:00 +5°C° 0.1 mm 4 mps 766 mmHg 87%
    07:00 +5°C° 0.1 mm 4 mps 766 mmHg 87%
    08:00 +6°C° 0 mm 4 mps 766 mmHg 83%
    09:00 +7°C° 0 mm 4 mps 766 mmHg 78%
    10:00 +10°C° 0 mm 4 mps 766 mmHg 73%
    11:00 +11°C° 0 mm 4 mps 766 mmHg 67%
    12:00 +12°C° 0 mm 4 mps 766 mmHg 61%
    13:00 +12°C° 0 mm 4 mps 765 mmHg 56%
    14:00 +12°C° 0 mm 4 mps 765 mmHg 57%
    15:00 +12°C° 0 mm 4 mps 765 mmHg 58%
    16:00 +12°C° 0 mm 3 mps 765 mmHg 59%
    17:00 +11°C° 0 mm 3 mps 765 mmHg 68%
    18:00 +9°C° 0 mm 2 mps 766 mmHg 77%
    19:00 +8°C° 0 mm 1 mps 766 mmHg 86%
    20:00 +8°C° 0 mm 1 mps 766 mmHg 87%
    21:00 +8°C° 0 mm 1 mps 767 mmHg 89%
    22:00 +7°C° 0 mm 1 mps 767 mmHg 90%
    23:00 +6°C° 0.1 mm 2 mps 767 mmHg 91%

    25 August, Friday

    Time Temperature Precipitation Wind Pressure Humidity
    00:00 +6°C° 0.1 mm 2 mps 767 mmHg 92%
    01:00 +6°C° 0.1 mm 2 mps 767 mmHg 93%
    02:00 +6°C° 0.1 mm 2 mps 766 mmHg 94%
    03:00 +6°C° 0.1 mm 2 mps 766 mmHg 94%
    04:00 +6°C° 0.1 mm 2 mps 766 mmHg 95%
    05:00 +6°C° 0 mm 2 mps 766 mmHg 95%
    06:00 +6°C° 0 mm 2 mps 766 mmHg 95%
    07:00 +5°C° 0 mm 2 mps 766 mmHg 95%
    08:00 +7°C° 0 mm 2 mps 766 mmHg 88%
    09:00 +9°C° 0 mm 2 mps 766 mmHg 81%
    10:00 +12°C° 0 mm 2 mps 766 mmHg 74%
    11:00 +13°C° 0 mm 2 mps 766 mmHg 67%
    12:00 +14°C° 0 mm 2 mps 765 mmHg 61%
    13:00 +15°C° 0 mm 2 mps 765 mmHg 55%
    14:00 +15°C° 0 mm 2 mps 764 mmHg 56%
    15:00 +14°C° 0 mm 2 mps 764 mmHg 58%
    16:00 +14°C° 0 mm 2 mps 764 mmHg 59%
    17:00 +13°C° 0 mm 2 mps 764 mmHg 65%
    18:00 +12°C° 0 mm 2 mps 764 mmHg 70%
    19:00 +10°C° 0 mm 2 mps 765 mmHg 76%
    20:00 +9°C° 0 mm 3 mps 765 mmHg 78%
    21:00 +9°C° 0 mm 3 mps 765 mmHg 81%
    22:00 +8°C° 0 mm 3 mps 765 mmHg 83%
    23:00 +8°C° 0 mm 3 mps 765 mmHg 84%

    26 August, Saturday

    Time Temperature Precipitation Wind Pressure Humidity
    00:00 +7°C° 0 mm 3 mps 764 mmHg 85%
    01:00 +7°C° 0 mm 3 mps 764 mmHg 87%
    02:00 +7°C° 0 mm 3 mps 764 mmHg 87%
    03:00 +7°C° 0 mm 3 mps 764 mmHg 88%
    04:00 +7°C° 0 mm 3 mps 764 mmHg 88%
    05:00 +7°C° 0.4 mm 3 mps 764 mmHg 90%
    06:00 +7°C° 0.4 mm 3 mps 765 mmHg 92%
    07:00 +7°C° 0.4 mm 4 mps 765 mmHg 93%
    08:00 +7°C° 0.3 mm 4 mps 765 mmHg 91%
    09:00 +8°C° 0.3 mm 4 mps 766 mmHg 89%
    10:00 +8°C° 0.3 mm 4 mps 766 mmHg 87%
    11:00 +9°C° 0.1 mm 5 mps 766 mmHg 78%
    12:00 +10°C° 0.1 mm 5 mps 766 mmHg 69%
    13:00 +10°C° 0.1 mm 5 mps 767 mmHg 60%
    14:00 +10°C° 0.1 mm 5 mps 767 mmHg 60%
    15:00 +10°C° 0.1 mm 5 mps 767 mmHg 60%
    16:00 +9°C° 0.1 mm 5 mps 767 mmHg 59%
    17:00 +8°C° 0 mm 4 mps 768 mmHg 64%
    18:00 +7°C° 0 mm 4 mps 768 mmHg 68%
    19:00 +5°C° 0 mm 3 mps 769 mmHg 72%
    20:00 +5°C° 0 mm 3 mps 769 mmHg 73%
    21:00 +5°C° 0 mm 3 mps 769 mmHg 75%
    22:00 +5°C° 0 mm 2 mps 770 mmHg 76%
    23:00 +5°C° 0 mm 2 mps 769 mmHg 78%
    Show more